COSMOS 2251 DEB, 34732

Orbit data source: Space-Track

COSMOS 2251 DEB, 34732 is space debris in LEO originally from a launch on Wed, 16 Jun 1993 UTC launched from the Plesetsk Missile And Space Complex (PKMTR). The debris from Iridium 33, an American commercial communications satellite, has been tracked extensively since its accidental collision with the defunct Russian satellite Cosmos 2251 in 2009. This event, occurring at high speed in low Earth orbit (LEO), generated thousands of pieces of space debris, significantly increasing the risk of further collisions. The Iridium 33 debris cloud has impacted space traffic management and orbital debris mitigation strategies, making it a subject of ongoing study in space situational awareness.

Loading next visibility...
Identifier
34732, 1993-036ZA
Orbit
LEO
Country
Flag of CISCIS
Related business
Manufacturer
Unknown
Mission
Spacecraft
Bus & Motor
Unknown
Mass
Unknown
Launch date (UTC)
1993-06-16 (33 years ago)
Launch vehicle
Unknown
Launch site
Plesetsk Missile And Space Complex (PKMTR)
Object type
Payload
Rocket body
Debris
Shape & HBR
Unknown shape, 0.1 m
Radar Cross Section
Small (<0.1 m²)

Expand to show TLE details & history
Last TLE update: 11 hours ago

TLE from 11 hours ago
0 COSMOS 2251 DEB
1 34732U 93036ZA  26123.63554507  .00000318  00000-0  93424-4 0  9997
2 34732  74.0451 187.9970 0040418 301.6634 211.9186 14.47444874901963
Epoch: 2026-05-03T15:15Z
TLE epoch observation values (Epoch: 2026-05-03T15:15:11.094Z)
Latitude
25.59702°
Longitude
-90.16517°
Altitude
761.247 km
Speed
7.463 km/s
True Right ascension
00h 00m 40s
True Declination
25° 27' 48"
Sunlit
Object was in daylight at epoch
Visualization orbit readout
Latitude
Unknown
Longitude
Unknown
Altitude
Unknown
Speed
Unknown
Apparent Right ascension
Unknown
Apparent Declination
Unknown
Sunlit
N/A
Visualization observer readout
Local Sidereal Time
10:28:56
Azimuth
Unknown
Elevation
Unknown
Doppler factor
Unknown
Orbital elements
Apogee altitude
760.353 km
Perigee altitude
702.88 km
Semi-major axis
7,109.754 km
Eccentricity
0.00404
Inclination
74.0451°
RAAN
187.997°
Arg. of periapsis
301.6634°
True anomaly
211.67477°
Mean anomaly
211.9186°
Eccentric anomaly
211.79658°
Mean motion
3.62044 °/min
Orbital period
99.44 mins
BSTAR
0.000093424

Documentation

Showing up to 5 results
|